Weather in Hedemora

Sweden     60°16′50″N   15°59′15″E
temp.,
°C
wind,
m/s
gust,
m/s
humid.,
%
clouds,
%
prec.,
mm/h
press.,
hPa
HPBL,
m
24 july, sat
sat2423:00+14nw115949 0.0 101611
02:00+12nw11685 0.0 101710
05:00+12nnw1173100 0.0 101714
08:00+18nnw125399 0.0 1017311
11:00+24wnw113762 0.0 10171056
14:00+27wnw013044 0.0 10161914
17:00+27nnw122811 0.0 10152327
20:00+23se224355 0.0 101425
25 july, sun
sun2523:00+17ssw255970 0.0 101687
02:00+15ssw126778 0.0 101617
05:00+15w117122 0.0 101611
08:00+22sw12485 0.0 1016268
11:00+28ssw22321 0.0 10161490
14:00+29s222719 0.0 10162865
17:00+29s332863 0.0 10152676
20:00+25s494021 0.0 1016698
26 july, mon
mon2623:00+18ssw276332 0.0 1018154
02:00+15s117221 0.0 101911
05:00+14sse118168 0.0 101916
08:00+20sse235812 0.0 1019400
11:00+25se34355 0.0 10181312
14:00+27sse453194 0.0 10172090
17:00+27sse453778 0.0 10162457
20:00+23sse4950100 0.0 1016663
27 july, tue
tue2723:00+17se287146 0.0 1017191
02:00+17ene128684 0.3 101652
05:00+15ene298840 0.0 1014193
08:00+18ene2575100 0.0 1013228
11:00+24se4758100 0.5 10121323
14:00+19ese4990100 2.0 1012560
17:00+18ese2698100 1.6 1010584
20:00+19sse2494100 2.0 1009382
28 july, wed
wed2823:00+18s119587 0.3 100921
02:00+16sw22975 0.3 100933
05:00+15wsw22976 0.0 100839
08:00+18wsw358342 0.0 1007354
11:00+23wsw344999 0.0 10061330
14:00+25sw4441100 0.0 10051995
17:00+25w4540100 0.0 10042169
20:00+20w375988 0.0 1004385